Theta_e
338 336 334 333 334 336 334 336 331 332 334 336 335 337 338 333 333 334 334 335 330 334 329 334 339 336 335 336 336 335 335 336 335 331 332 337 338 342 345 338 336 336 337
337 336 335 332 334 336 332 329 328 334 333 335 337 336 334 334 333 333 336 338 338 337 339 332 331 330 331 333 333 334 334 333 329 329 333 341 345 337 334 330 330 330 331
336 336 334 332 334 337 327 329 334 335 335 335 334 335 333 335 339 340 341 339 340 338 339 339 338 334 335 339 341 341 343 344 343 339 331 335 337 327 327 328 328 328 328
337 337 334 332 335 337 325 325 332 335 336 335 336 338 338 339 341 341 342 340 340 342 341 341 340 340 340 343 343 343 344 345 345 344 340 334 334 335 335 335 332 331 330
337 335 335 335 336 328 332 333 336 335 337 338 338 337 340 341 340 340 342 342 342 342 341 339 338 336 340 343 344 344 346 345 344 345 343 335 337 340 341 343 342 339 332
336 332 335 335 325 327 334 335 336 337 336 337 338 337 339 339 339 341 340 340 340 338 340 342 334 335 338 345 345 344 346 345 347 344 335 337 331 332 333 330 329 327 325
336 333 339 326 324 333 336 337 335 335 337 337 339 340 341 341 340 339 339 339 339 340 337 332 330 330 341 343 345 346 347 345 344 340 330 327 325 325 325 326 329 333 336
334 334 335 331 334 336 336 336 336 333 332 336 335 338 341 342 341 334 337 340 334 335 333 330 326 333 344 343 345 344 346 347 343 326 323 324 327 330 333 335 340 342 342
337 334 333 334 337 337 337 336 338 334 331 333 331 332 339 338 340 333 330 328 326 324 324 324 324 328 338 345 344 344 342 343 341 329 329 332 333 335 340 340 341 341 342
337 329 331 336 337 337 338 334 333 333 333 331 328 327 332 335 335 335 332 329 326 323 323 323 323 323 330 335 339 342 343 343 342 335 333 332 339 339 339 341 342 343 343
343 340 332 336 337 336 338 337 336 334 334 328 339 335 337 336 335 337 331 329 326 335 337 325 328 336 337 338 340 341 342 342 339 334 331 339 337 339 341 343 343 345 345
344 344 342 340 338 337 336 332 333 343 343 344 347 347 344 339 337 337 331 330 340 344 346 347 346 344 339 339 339 338 340 339 338 329 337 336 339 341 343 344 345 345 345
343 337 341 340 342 337 334 339 336 343 344 345 346 344 342 335 336 334 340 333 335 342 346 346 343 346 347 347 339 339 341 338 336 335 334 339 341 343 344 346 346 346 346
341 339 338 342 343 344 338 340 338 337 343 345 341 341 340 338 339 343 341 343 342 345 346 344 342 347 346 345 339 339 340 337 336 332 338 340 341 342 345 346 346 346 346
343 342 338 344 344 344 345 343 345 342 338 341 342 345 345 346 345 346 341 344 344 344 345 346 346 343 344 342 341 340 340 338 336 338 339 340 342 344 344 343 343 344 345
343 345 342 342 342 345 345 342 345 346 342 339 345 345 346 345 344 343 342 343 346 345 345 345 346 345 343 340 341 338 340 341 341 337 338 339 341 345 347 347 347 345 344
346 344 340 339 341 344 342 343 344 344 342 338 342 343 343 341 339 343 342 346 347 346 343 345 346 344 342 341 341 340 339 343 343 343 345 344 344 347 347 350 351 351 349
345 344 341 338 338 339 338 342 341 342 343 341 341 344 344 345 345 345 342 344 342 339 341 344 345 345 340 340 341 341 340 340 342 343 343 343 345 347 348 351 352 350 347
344 343 343 339 336 337 342 340 341 344 344 343 337 336 337 342 343 344 345 345 341 345 348 348 346 345 340 342 342 342 343 340 343 344 344 342 347 347 348 350 352 351 347
344 345 345 344 338 342 342 343 343 344 343 342 343 345 342 340 343 345 346 346 344 344 345 345 348 345 340 342 343 342 343 343 344 345 345 345 347 348 349 349 351 345 345
344 343 343 345 342 343 342 344 343 343 342 343 345 345 344 342 343 342 341 342 344 344 344 346 345 345 344 345 344 342 343 345 344 344 345 345 346 348 350 350 350 344 344
344 342 343 344 343 343 341 344 342 342 343 342 345 347 343 340 342 347 347 338 339 342 345 344 344 345 347 344 346 348 344 343 343 343 343 344 347 347 348 351 349 348 349
344 342 342 344 344 343 341 342 341 342 342 343 345 345 342 340 342 350 346 344 335 340 345 347 346 346 348 346 345 347 349 345 342 344 343 340 343 346 349 348 351 349 351
344 341 342 342 343 342 342 343 343 343 342 344 344 342 341 338 339 344 347 343 340 341 346 346 347 346 344 347 348 345 345 344 341 333 335 335 338 342 347 347 349 349 350
344 343 344 343 341 342 340 344 343 343 344 343 343 344 345 346 340 345 346 341 340 337 344 343 346 346 341 347 350 351 347 347 343 342 336 343 339 337 340 345 348 350 351
347 344 344 343 339 341 341 343 343 343 346 345 346 344 346 344 342 346 349 344 338 336 335 340 343 347 342 335 346 344 349 349 348 347 346 345 345 345 343 338 341 345 350
Wind_Speed
18 19 20 22 24 22 20 18 20 21 20 17 14 15 16 17 17 17 17 18 17 18 18 18 17 19 19 19 18 18 17 15 13 14 16 17 18 19 18 14 13 13 13
23 21 19 19 22 21 18 18 17 18 18 17 16 17 16 17 17 17 16 17 18 18 19 19 18 19 20 20 20 21 21 21 19 14 15 16 14 16 14 12 11 12 11
21 20 20 20 19 21 20 21 18 20 20 19 19 18 19 18 18 17 17 18 18 18 18 18 19 21 22 23 23 24 25 25 25 20 13 15 14 13 11 12 13 13 12
23 21 21 22 20 20 23 19 19 20 19 19 19 18 19 18 19 19 19 20 18 17 17 18 20 22 23 23 22 20 20 20 20 15 13 14 16 15 14 13 14 14 12
23 22 21 22 21 19 24 22 21 20 19 19 18 19 18 18 20 19 20 21 21 19 18 18 21 24 23 21 22 24 25 19 16 13 9 12 15 15 13 14 12 11 11
22 22 20 20 20 24 22 22 21 20 20 19 18 19 19 18 18 19 19 20 19 18 18 17 20 22 23 21 18 19 21 18 17 9 8 11 13 13 12 11 10 9 10
23 22 21 21 23 23 21 20 20 20 19 19 19 19 19 18 18 19 18 18 18 18 17 18 20 23 23 22 18 19 19 18 11 6 5 9 11 11 11 11 12 13 13
20 23 23 23 22 21 20 19 19 19 18 18 19 19 19 18 18 18 18 18 17 17 16 17 19 21 22 21 21 21 20 14 3 8 9 11 12 13 14 14 15 14 14
23 23 23 23 22 21 19 19 18 18 19 18 17 18 18 17 17 18 19 18 17 19 17 18 18 19 20 19 20 18 16 11 9 11 10 11 13 16 16 16 15 14 14
22 21 23 21 21 21 20 19 18 18 19 20 20 19 17 18 18 19 18 19 18 20 20 20 20 21 19 19 21 20 17 9 5 9 7 12 16 16 16 15 15 14 13
22 21 20 18 18 19 18 19 20 19 20 25 24 23 18 14 16 17 17 19 22 23 23 22 24 24 23 19 15 14 16 9 6 4 8 13 15 16 15 14 13 12 12
25 19 20 14 14 17 18 19 22 23 19 19 16 15 15 15 16 16 17 20 21 19 17 16 13 14 18 18 15 15 13 7 5 4 10 13 14 14 13 12 11 12 12
24 11 14 17 17 15 18 21 23 22 20 16 16 13 9 10 15 16 19 18 14 11 10 13 10 9 8 8 12 11 11 6 5 7 12 13 13 12 11 10 10 11 12
19 25 12 20 21 14 15 14 16 15 20 16 14 16 13 12 12 12 9 9 12 9 10 8 8 7 6 3 11 10 10 5 5 8 12 11 11 10 9 9 10 11 12
16 17 19 21 18 18 14 12 17 18 13 17 18 14 12 8 6 10 9 8 6 6 8 4 8 9 8 8 4 1 13 5 4 9 10 9 10 10 10 12 12 12 12
20 22 20 26 21 23 20 17 20 17 13 18 14 12 15 12 12 10 7 6 4 1 3 5 8 10 8 10 4 10 11 4 4 7 9 8 9 9 10 13 14 12 11
24 22 12 18 28 25 18 17 15 19 17 14 10 15 13 15 15 12 10 5 6 5 2 8 8 8 7 12 8 5 15 5 3 5 2 6 7 7 7 11 12 13 13
20 15 18 22 24 18 23 18 22 19 18 10 11 11 13 16 11 6 7 8 7 7 7 6 6 7 4 6 12 7 5 14 7 4 3 3 6 8 7 6 10 13 13
14 18 22 22 18 18 15 24 16 12 15 11 6 11 10 12 10 5 5 4 7 8 6 5 3 7 8 5 7 7 2 6 6 6 2 4 5 8 7 10 8 11 10
19 22 23 20 20 18 19 17 14 14 14 9 7 9 7 9 7 6 7 2 5 11 7 6 3 5 8 7 5 5 8 2 4 2 6 9 7 6 6 10 8 3 5
26 24 19 21 19 20 22 19 18 19 15 13 11 9 6 7 6 2 6 3 3 7 10 8 9 6 5 1 8 13 9 7 8 7 6 5 8 5 4 9 5 5 6
28 23 23 20 20 19 20 18 18 20 16 12 12 8 4 12 12 6 5 5 4 9 12 10 7 8 3 2 3 5 7 10 9 8 8 8 4 4 8 3 10 5 6
24 23 21 24 24 21 23 21 18 19 16 15 12 9 7 9 12 8 3 5 9 10 10 10 8 7 4 4 2 2 2 3 5 4 2 11 8 5 3 10 3 4 4
26 21 18 22 25 24 25 24 21 20 20 18 14 9 4 7 12 9 5 5 3 8 5 4 9 2 9 4 2 3 4 3 3 2 4 9 12 12 4 9 2 2 5
26 22 20 16 23 26 28 23 19 18 19 17 15 12 9 4 7 10 4 7 4 8 12 3 3 3 10 5 4 10 2 4 2 2 10 7 7 3 12 8 10 7 4
28 26 22 18 25 30 30 23 22 21 17 16 13 14 15 8 10 9 9 8 8 8 9 6 4 1 4 14 5 0 3 4 2 4 2 4 3 3 2 8 6 11 3
Wind_Direction
142 129 112 112 108 106 101 106 102 97 93 89 107 110 107 106 108 109 107 108 111 110 107 112 108 107 107 104 100 97 96 95 103 112 108 102 102 99 90 88 96 97 97
134 131 122 114 116 114 115 105 108 115 118 121 119 114 112 107 107 107 109 113 111 111 107 109 108 105 104 107 107 107 105 99 92 98 107 103 105 93 89 83 97 97 96
144 139 133 128 120 116 111 108 111 115 119 118 117 117 114 112 108 109 111 115 116 115 116 112 112 111 113 115 112 109 106 98 84 83 90 105 105 94 95 99 97 94 94
141 141 138 130 121 120 111 115 118 118 119 118 116 115 115 112 111 106 109 110 113 114 115 117 113 114 119 115 109 107 106 99 97 76 62 102 105 104 102 99 98 96 95
135 136 134 130 129 131 125 129 122 122 119 113 114 117 115 112 111 108 109 110 112 111 111 112 114 121 125 116 107 105 98 99 105 123 88 108 109 105 102 101 97 94 95
133 133 133 133 135 134 129 127 125 120 119 116 114 115 115 116 115 112 115 115 112 112 114 116 119 126 128 120 115 116 109 105 119 120 89 116 112 113 112 103 100 92 84
136 132 135 131 129 131 130 127 125 123 119 115 112 113 116 113 115 116 114 116 115 117 117 117 121 131 129 121 108 106 105 118 112 118 132 122 114 112 106 100 96 91 89
136 135 137 135 132 133 135 131 127 124 122 119 122 119 118 113 116 113 115 115 112 115 112 116 119 133 132 125 121 118 110 110 84 104 119 121 113 109 103 102 97 93 88
142 141 135 136 134 135 133 131 126 123 121 119 120 123 116 113 116 114 110 108 108 106 107 108 115 127 132 119 118 114 110 107 77 82 107 115 114 107 105 101 96 90 81
134 132 136 136 138 136 136 129 124 121 120 116 113 115 117 118 117 113 109 104 104 103 102 105 110 114 125 117 112 109 115 139 90 41 107 117 111 109 104 100 92 83 77
134 123 129 132 137 139 136 129 126 121 122 118 111 112 108 110 119 112 110 106 106 102 92 102 108 110 110 109 110 110 124 143 114 27 117 117 113 108 103 93 84 75 63
142 127 126 134 140 143 137 130 127 123 116 108 105 116 112 97 117 109 108 108 112 100 94 93 98 97 103 104 97 99 123 140 68 124 125 118 114 104 93 82 70 56 46
152 155 153 153 143 141 141 132 137 135 127 118 118 108 112 100 113 112 105 108 113 82 75 78 74 80 73 119 108 127 138 124 46 132 127 120 111 97 84 69 51 34 31
147 142 156 155 159 151 145 141 129 141 136 133 135 132 129 131 127 115 112 112 104 81 96 81 80 67 74 88 104 120 154 157 29 134 125 116 103 85 66 45 26 15 14
153 156 152 156 163 160 166 140 138 139 134 141 147 144 160 150 158 139 140 123 95 85 82 76 88 107 100 109 91 200 199 167 58 124 113 103 86 65 43 29 18 18 14
150 140 154 172 172 175 168 171 166 169 138 155 138 138 142 142 148 159 154 154 119 168 159 133 109 121 117 136 100 140 118 140 92 105 83 76 71 52 43 33 16 17 14
161 161 190 193 171 174 173 173 173 148 151 162 144 149 151 160 154 146 130 147 132 118 190 139 128 148 127 164 137 138 170 143 138 136 41 30 16 3 358 23 22 14 13
168 180 171 182 171 183 179 154 132 149 156 165 149 160 162 161 162 164 177 161 162 167 170 153 131 131 94 108 151 149 104 184 199 110 46 325 343 348 12 13 15 20 30
161 154 164 173 180 166 146 158 142 147 164 167 157 185 156 174 161 163 165 159 176 186 248 223 162 173 181 134 150 144 187 82 138 154 54 295 329 335 347 20 21 40 58
157 163 172 175 173 167 154 139 143 161 157 181 174 158 142 152 165 197 237 264 239 185 155 146 93 157 192 209 187 188 220 159 34 243 238 278 313 357 346 354 8 8 344
171 175 174 171 173 168 171 165 171 176 167 176 203 206 169 152 165 164 181 230 252 199 190 149 156 168 188 175 240 192 204 214 201 217 248 309 234 266 287 317 329 350 28
178 185 175 177 174 180 182 170 173 177 166 185 188 193 226 182 170 170 179 195 223 216 153 160 172 187 211 220 199 226 218 215 232 221 263 287 270 263 253 227 315 345 42
187 187 191 186 185 184 174 175 170 172 180 188 205 223 260 215 174 181 178 144 179 170 172 154 174 177 249 230 263 307 21 208 246 240 265 323 286 275 241 319 314 30 328
194 196 191 196 197 189 181 184 188 194 191 200 206 221 198 171 186 190 267 255 192 164 141 134 144 152 209 238 344 295 301 31 299 112 260 27 356 278 283 29 205 223 160
199 197 192 184 198 188 184 182 191 188 200 205 212 201 205 199 196 198 252 213 203 191 176 122 76 131 211 178 28 77 56 333 277 36 344 341 273 203 245 7 60 140 176
203 194 188 182 177 173 179 185 190 194 198 204 198 205 206 201 187 196 218 244 208 191 206 208 225 86 274 226 300 191 60 21 33 47 210 252 245 133 311 311 279 244 208